Overview Statistics Trail Chart Weather Telemetry Raw packets
 

This is the latest recevied weather packets stored in our database for station/object M0JUI-1. If no packets are shown the sender has not sent any weather packets the latest 10 day(s).

<< 95 96 97 98 99 100 101 >>
Time Temp. Humidity Pressure Rain* Wind** Luminosity Snow
1787930696 16.67° C 6% 1004.7 hPa 1.52 mm - 70 W/m² -
1787930396 16.67° C 5% 1004.8 hPa 1.02 mm - 60 W/m² -
1787930097 16.67° C 4% 1004.8 hPa 0.76 mm - 56 W/m² -
1787929784 16.67° C 4% 1004.9 hPa 0.25 mm - 68 W/m² -
1787929484 16.67° C 4% 1004.9 hPa 0 mm - 65 W/m² -
1787929185 17.22° C 4% 1004.9 hPa 0 mm - 46 W/m² -
1787928872 17.22° C 5% 1004.9 hPa 0 mm - 30 W/m² -
1787928572 17.22° C 5% 1004.7 hPa 0 mm - 56 W/m² -
1787928272 17.22° C 6% 1004.8 hPa 0 mm - 70 W/m² -
1787927972 17.22° C 8% 1004.7 hPa 0 mm - 81 W/m² -
1787927672 17.22° C 10% 1004.7 hPa 0 mm - 112 W/m² -
1787927372 17.22° C 12% 1004.8 hPa 0 mm - 138 W/m² -
1787927072 16.67° C 14% 1004.8 hPa 0 mm - 197 W/m² -
1787926760 17.22° C 15% 1004.9 hPa 0 mm - 219 W/m² -
1787926460 17.22° C 15% 1004.9 hPa 0 mm - 270 W/m² -
1787926161 16.67° C 16% 1004.8 hPa 0.25 mm - 134 W/m² -
1787925849 16.67° C 15% 1004.8 hPa 0.51 mm - 106 W/m² -
1787925549 17.22° C 16% 1004.7 hPa 0.76 mm - 138 W/m² -
1787925248 17.22° C 16% 1004.8 hPa 1.27 mm - 188 W/m² -
1787924936 16.67° C 16% 1004.7 hPa 1.52 mm - 176 W/m² -
1787924637 16.67° C 16% 1004.7 hPa 1.78 mm - 134 W/m² -
1787924336 16.67° C 16% 1004.6 hPa 1.78 mm - 127 W/m² -
1787924024 16.67° C 16% 1004.6 hPa 1.78 mm - 147 W/m² -
1787923724 17.22° C 16% 1004.5 hPa 2.03 mm - 172 W/m² -
1787923424 16.67° C 16% 1004.5 hPa 2.29 mm - 233 W/m² -

* Rain latest hour (hover to see other rain measurements)
** Current wind speed in m/s (hover to see current wind gust speed)